1495627200.2,9810,16.06,73562.5,8.87,3.07,3.19,0,*45
1495627201.42,9811,16.06,73562.5,8.87,2.89,2.81,0,*43
1495627202.61,9812,16.13,73560.8,8.87,2.99,3.07,0,*4E
1495627203.83,9813,16.13,73560.8,8.91,3.03,3.19,0,*45
1495627205.02,9814,16.06,73560.5,8.91,2.99,3.19,0,*40
1495627206.22,9815,16.06,73562.8,8.91,3.29,3.33,0,*43
1495627207.46,9816,16.06,73560.0,8.93,3.19,3.33,0,*41
1495627208.69,9817,16.06,73560.8,8.93,3.29,3.41,0,*46
1495627209.93,9818,16.13,73562.3,8.93,2.81,2.85,0,*43
1495627211.17,9819,16.13,73564.3,8.93,2.09,2.21,0,*4C
1495627212.39,9820,16.13,73562.8,8.93,2.35,2.39,0,*40
1495627213.65,9821,16.13,73560.8,8.93,2.51,2.51,0,*4D
1495627214.9,9822,16.06,73562.0,8.93,2.81,2.81,0,*4E
1495627216.14,9823,16.13,73566.5,8.93,2.13,2.21,0,*4E
1495627217.38,9824,16.13,73568.3,8.93,2.09,1.97,0,*4C
1495627218.57,9825,16.13,73566.3,8.93,2.27,2.27,0,*49
1495627219.79,9826,16.13,73568.5,8.95,2.51,2.55,0,*48
1495627221.01,9827,16.13,73568.5,8.93,3.11,3.29,0,*40
1495627222.19,9828,16.06,73564.5,8.95,2.61,2.65,0,*46
1495627223.38,9829,16.13,73568.8,8.95,3.25,3.37,0,*40
1495627224.58,9830,16.13,73568.0,8.97,3.85,3.89,0,*45
1495627225.74,9831,16.13,73568.3,8.99,4.11,4.19,0,*4E
1495627226.94,9832,16.13,73568.0,9.01,4.27,4.27,0,*45
1495627228.13,9833,16.13,73570.3,9.05,4.19,4.27,0,*4D
1495627229.3,9834,16.06,73564.0,9.09,4.37,4.49,0,*42
1495627230.5,9835,16.13,73570.3,9.11,4.41,4.45,0,*47
1495627231.68,9836,16.13,73572.3,9.13,4.33,4.37,0,*46
1495627232.86,9837,16.13,73568.3,9.17,4.41,4.41,0,*47
1495627234.03,9838,16.06,73568.3,9.17,4.27,4.19,0,*45
1495627235.29,9839,16.06,73566.0,9.19,3.41,3.33,0,*42
1495627236.46,9840,16.13,73568.8,9.21,3.29,3.25,0,*4E
1495627237.67,9841,16.06,73566.3,9.19,3.93,3.93,0,*48
1495627238.84,9842,16.13,73570.5,9.25,4.11,4.15,0,*40
1495627240.02,9843,16.06,73566.3,9.25,3.81,3.89,0,*4D
1495627241.24,9844,16.13,73570.5,9.31,2.91,2.89,0,*4E
1495627242.46,9845,16.13,73568.8,9.31,3.23,3.25,0,*40
1495627243.7,9846,16.13,73570.8,9.31,3.45,3.53,0,*42
1495627244.93,9847,16.13,73570.5,9.33,3.07,3.03,0,*42
1495627246.18,9848,16.13,73566.3,9.35,2.59,2.47,0,*40
1495627247.42,9849,16.13,73568.3,9.35,2.25,2.09,0,*40
1495627248.66,9850,16.13,73568.3,9.35,2.85,2.69,0,*44
1495627249.88,9851,16.13,73566.5,9.37,2.39,2.17,0,*49
1495627251.05,9852,16.13,73566.0,9.37,2.27,2.35,0,*45
1495627252.29,9853,16.13,73564.5,9.39,2.89,2.89,0,*49
1495627253.51,9854,16.06,73564.3,9.39,2.85,2.61,0,*44
1495627254.76,9855,16.13,73566.8,9.41,2.39,2.21,0,*49
1495627255.96,9856,16.13,73568.5,9.43,2.91,2.55,0,*49
1495627257.15,9857,16.13,73564.0,9.47,2.95,2.05,0,*4D
1495627258.37,9858,16.13,73564.5,9.47,2.73,1.37,0,*48
1495627259.58,9859,16.13,73564.5,9.47,2.13,0.29,0,*71
1495627260.83,9860,16.13,73570.8,9.49,1.25,-1.01,0,*65
1495627262.06,9861,16.13,73566.8,9.49,1.41,-1.05,0,*62
1495627263.31,9862,16.13,73564.5,9.53,0.95,-1.35,0,*51
1495627264.52,9863,16.13,73568.0,9.57,0.63,-1.55,0,*5B
1495627265.77,9864,16.13,73570.8,9.61,0.59,-1.05,0,*55
1495627266.97,9865,16.13,73568.3,9.61,0.97,-0.19,0,*6A
1495627268.19,9866,16.06,73564.0,9.65,0.87,-0.57,0,*66
1495627269.39,9867,16.13,73570.8,9.67,0.95,-0.41,0,*61
1495627270.65,9868,16.13,73568.5,9.73,2.17,1.21,0,*49
1495627271.86,9869,16.13,73570.3,9.81,2.61,1.89,0,*46
1495627273.06,9870,16.13,73568.3,9.87,1.83,0.87,0,*78
1495627274.27,9871,16.13,73568.8,9.91,1.47,0.25,0,*7E
1495627275.48,9872,16.13,73566.5,9.95,1.33,-0.65,0,*53
1495627276.69,9873,16.13,73568.3,10.01,1.01,-1.67,0,*55
1495627277.9,9874,16.13,73568.0,10.05,1.75,-1.39,0,*5E
1495627279.14,9875,16.13,73568.5,10.11,0.47,-1.71,0,*66
1495627280.34,9876,16.13,73566.5,10.15,-0.33,-0.65,0,*7B
1495627281.55,9877,16.13,73564.0,10.21,-0.23,-0.11,0,*7F
1495627282.76,9878,16.13,73564.3,10.27,0.09,0.55,0,*4E
1495627284.01,9879,16.13,73562.3,10.31,0.47,1.21,0,*40
1495627285.18,9880,16.13,73564.0,10.33,1.41,2.31,0,*71
1495627286.43,9881,16.13,73570.0,10.35,2.25,2.39,0,*7F
1495627287.66,9882,16.13,73568.5,10.39,2.17,0.87,0,*46
1495627288.89,9883,16.13,73570.0,10.45,1.51,-1.79,0,*50
1495627290.12,9884,16.13,73570.8,10.45,-0.23,-4.25,0,*42
1495627291.35,9885,16.13,73568.8,10.45,-1.17,-4.57,0,*70
1495627292.61,9886,16.13,73566.5,10.49,-1.01,-3.43,0,*7A
1495627293.84,9887,16.13,73566.3,10.49,-1.13,-3.87,0,*70
1495627295.05,9888,16.13,73566.5,10.53,-2.23,-4.61,0,*7B
1495627296.27,9889,16.13,73570.5,10.57,-1.71,-2.43,0,*7C
1495627297.5,9890,16.13,73568.0,10.61,-1.21,-0.27,0,*44
1495627298.65,9891,16.13,73570.0,10.67,-0.61,0.01,0,*6F
1495627299.87,9892,16.13,73570.0,10.71,0.29,-0.07,0,*61
1495627301.09,9893,16.13,73570.5,10.75,0.21,-0.49,0,*56
1495627302.3,9894,16.13,73568.8,10.79,0.47,0.09,0,*44
1495627303.5,9895,16.13,73566.8,10.83,0.01,0.25,0,*4C
1495627304.67,9896,16.13,73568.8,10.89,-1.59,-1.59,0,*73
1495627305.9,9897,16.13,73568.0,10.93,-5.03,-3.47,0,*7F
1495627307.13,9898,16.13,73570.3,10.95,-7.69,-3.39,0,*71
1495627308.37,9899,16.13,73570.0,10.97,-7.69,-2.07,0,*7E
1495627309.59,9900,16.13,73568.3,10.99,-5.61,-0.03,0,*7D
1495627310.81,9901,16.13,73564.3,10.99,-4.85,-1.55,0,*75
1495627312.05,9902,16.13,73564.8,11.01,-3.71,-1.91,0,*72
1495627313.25,9903,16.13,73570.0,11.01,-3.83,-2.39,0,*7F
1495627314.47,9904,16.13,73568.0,11.01,-4.05,-2.03,0,*78
1495627315.7,9905,16.13,73566.3,11.05,-5.55,-2.75,0,*78
1495627316.92,9906,16.13,73566.0,11.05,-4.85,-1.63,0,*73
1495627318.14,9907,16.13,73564.0,11.05,-4.53,-1.47,0,*7F
1495627319.34,9908,16.13,73570.5,11.05,-4.53,-1.67,0,*72
1495627320.58,9909,16.13,73564.0,11.07,-3.87,-1.09,0,*77
1495627321.82,9910,16.13,73564.0,11.07,-2.19,-0.23,0,*40
1495627323.06,9911,16.13,73564.5,11.07,-1.83,-0.57,0,*42
1495627324.33,9912,16.13,73564.8,11.07,-1.43,-0.27,0,*4A
1495627325.55,9913,16.13,73568.8,11.11,-0.33,0.95,0,*5E
1495627326.78,9914,16.13,73564.3,11.11,-0.29,1.13,0,*6D
1495627328.02,9915,16.13,73564.8,11.07,-0.73,0.63,0,*52
1495627329.27,9916,16.13,73564.8,11.11,0.83,1.89,0,*41
1495627330.48,9917,16.13,73564.5,11.11,1.75,2.61,0,*7D
1495627331.72,9918,16.13,73566.5,11.11,2.31,3.03,0,*74
1495627332.95,9919,16.13,73564.3,11.15,1.83,2.01,0,*78
1495627334.15,9920,16.13,73566.8,11.17,0.97,1.51,0,*42
1495627335.37,9921,16.13,73566.0,11.17,1.17,1.83,0,*75
1495627336.62,9922,16.13,73568.0,11.19,0.71,1.47,0,*41
1495627337.84,9923,16.13,73564.8,11.21,0.21,1.47,0,*4E
1495627339.08,9924,16.13,73566.0,11.21,1.17,2.25,0,*7A
1495627340.34,9925,16.13,73564.5,11.23,1.43,2.39,0,*75
1495627341.6,9926,16.13,73566.5,11.27,1.93,2.39,0,*7F
1495627342.84,9927,16.13,73570.0,11.27,0.59,0.95,0,*7D
1495627344.06,9928,16.13,73568.8,11.29,0.63,1.21,0,*4B
1495627345.31,9929,16.13,73564.8,11.31,0.51,0.87,0,*7F
1495627346.52,9930,16.13,73568.0,11.35,1.05,0.91,0,*44
1495627347.75,9931,16.13,73566.3,11.37,-0.15,-0.89,0,*7E
1495627348.94,9932,16.13,73564.0,11.35,1.05,-0.07,0,*54
1495627350.15,9933,16.13,73564.5,11.37,1.05,-0.53,0,*66
1495627351.41,9934,16.13,73566.0,11.37,0.95,-1.05,0,*6B
1495627352.67,9935,16.13,73564.5,11.41,1.33,-0.89,0,*63
1495627353.9,9936,16.13,73566.8,11.41,1.25,-0.65,0,*65
1495627355.1,9937,16.13,73564.8,11.43,2.31,0.67,0,*4F
1495627356.34,9938,16.13,73568.8,11.49,2.21,0.71,0,*4C
1495627357.56,9939,16.13,73564.5,11.51,1.63,0.17,0,*41
1495627358.81,9940,16.13,73568.5,11.57,1.43,0.29,0,*46
1495627360.02,9941,16.13,73566.3,11.63,-0.33,-1.43,0,*4B
1495627361.2,9942,16.13,73564.8,11.63,-0.45,-0.69,0,*70
1495627362.43,9943,16.13,73568.8,11.67,-1.51,-0.97,0,*40
1495627363.61,9944,16.13,73566.3,11.69,-1.51,-0.29,0,*4C
1495627364.84,9945,16.13,73566.8,11.71,-1.87,-0.29,0,*4F
1495627366.1,9946,16.13,73566.8,11.79,-1.01,0.67,0,*6D
1495627367.33,9947,16.13,73568.8,11.81,-1.05,0.87,0,*61
1495627368.56,9948,16.13,73568.8,11.87,-1.59,0.51,0,*6A
1495627369.79,9949,16.13,73566.5,11.89,-2.03,-0.23,0,*41
1495627371.02,9950,16.13,73566.8,11.91,-1.87,-0.19,0,*46
1495627372.27,9951,16.13,73564.8,11.95,-1.09,0.41,0,*65
1495627373.46,9952,16.13,73568.8,11.99,-1.17,0.05,0,*55
1495627374.67,9953,16.13,73570.8,12.05,-1.63,-0.73,0,*4D
1495627375.9,9954,16.13,73566.8,12.05,-1.63,-0.85,0,*43
1495627377.07,9955,16.13,73570.5,12.11,-0.69,0.43,0,*5B
1495627378.3,9956,16.13,73568.0,12.17,-0.73,0.37,0,*56
1495627379.53,9957,16.13,73570.3,12.17,-1.09,-0.07,0,*75
1495627380.73,9958,16.13,73570.5,12.23,-0.11,1.21,0,*6D
1495627381.94,9959,16.13,73568.0,12.27,-0.45,1.09,0,*63
1495627383.18,9960,16.13,73568.0,12.35,-1.39,0.59,0,*64
1495627384.4,9961,16.13,73566.8,12.39,-1.09,1.59,0,*5B
1495627385.57,9962,16.13,73568.8,12.43,-0.07,2.95,0,*59
1495627386.8,9963,16.13,73570.3,12.49,-0.03,2.89,0,*5B
1495627388.03,9964,16.13,73570.5,12.53,1.63,3.93,0,*77
1495627389.26,9965,16.13,73570.8,12.57,2.25,4.15,0,*7A
1495627390.49,9966,16.13,73564.8,12.61,1.51,3.15,0,*7B
1495627391.7,9967,16.13,73568.8,12.65,2.35,3.79,0,*75
1495627392.93,9968,16.13,73574.5,12.69,1.85,3.15,0,*74
1495627394.14,9969,16.13,73572.0,12.73,2.35,3.41,0,*77
1495627395.39,9970,16.13,73570.8,12.75,2.77,3.67,0,*7B
1495627396.63,9971,16.13,73568.8,12.79,0.87,1.89,0,*49
1495627397.86,9972,16.13,73570.3,12.81,1.43,2.17,0,*70
1495627399.07,9973,16.13,73568.3,12.81,-1.47,-0.77,0,*41
1495627400.27,9974,16.13,73568.0,12.81,-0.11,0.71,0,*5F
1495627401.47,9975,16.13,73568.5,12.77,-0.53,0.37,0,*53
1495627402.73,9976,16.13,73566.8,12.79,1.17,2.17,0,*72
1495627403.95,9977,16.13,73570.0,12.79,-0.03,1.25,0,*58
1495627405.17,9978,16.13,73570.5,12.83,-0.61,0.91,0,*58
1495627406.38,9979,16.13,73568.5,12.81,0.13,1.93,0,*40
1495627407.6,9980,16.13,73570.0,12.83,0.75,2.65,0,*4E
1495627408.85,9981,16.13,73570.0,12.83,1.63,3.67,0,*7A
1495627410.05,9982,16.13,73570.3,12.85,3.33,5.11,0,*7F
1495627411.28,9983,16.13,73568.8,12.87,2.99,4.63,0,*79
1495627412.51,9984,16.13,73566.5,12.87,2.51,3.93,0,*72
1495627413.73,9985,16.13,73564.0,12.91,3.19,4.49,0,*79
1495627414.97,9986,16.13,73564.8,12.91,2.77,3.97,0,*77
1495627416.21,9987,16.13,73564.3,12.91,3.89,5.01,0,*7F
1495627417.43,9988,16.13,73560.8,12.91,4.57,5.51,0,*71
1495627418.64,9989,16.13,73562.5,12.95,4.97,5.67,0,*7D
1495627419.88,9990,16.13,73560.3,12.97,5.05,5.67,0,*7D
1495627421.07,9991,16.13,73562.5,12.99,4.07,4.57,0,*73
1495627422.31,9992,16.13,73564.0,12.97,4.23,4.75,0,*78
1495627423.55,9993,16.13,73564.3,12.97,4.23,4.63,0,*7E
1495627424.78,9994,16.13,73566.0,12.99,3.97,4.31,0,*78
1495627426.0,9995,16.13,73566.0,12.95,3.53,3.71,0,*7E
1495627427.26,9996,16.13,73566.5,12.97,3.79,4.01,0,*77
1495627428.49,9997,16.13,73566.0,12.95,4.75,4.97,0,*70
1495627429.7,9998,16.13,73566.3,12.95,4.59,4.81,0,*76
1495627430.87,9999,16.13,73564.3,12.95,5.15,5.33,0,*76
1495627432.13,10000,16.13,73564.3,12.97,5.73,5.93,0,*4F
1495627433.36,10001,16.13,73564.0,13.01,5.71,5.77,0,*48
1495627434.6,10002,16.13,73568.8,13.01,5.81,5.95,0,*48
1495627435.81,10003,16.13,73566.0,13.03,5.85,6.07,0,*47
1495627437.06,10004,16.13,73568.0,13.05,6.35,6.33,0,*49
1495627438.28,10005,16.13,73568.8,13.09,6.29,6.25,0,*4E
1495627439.55,10006,16.13,73568.8,13.09,6.35,6.17,0,*41
1495627440.81,10007,16.13,73564.5,13.13,5.05,4.79,0,*41
1495627442.04,10008,16.19,73572.0,13.17,5.07,4.63,0,*43
1495627443.22,10009,16.13,73570.0,13.19,4.81,4.23,0,*47
1495627444.4,10010,16.13,73568.5,13.19,5.71,5.19,0,*49
1495627445.58,10011,16.13,73570.0,13.23,5.23,4.57,0,*4D
1495627446.81,10012,16.13,73564.8,13.27,3.29,2.25,0,*45
1495627448.02,10013,16.13,73564.0,13.25,4.19,2.59,0,*49
1495627449.25,10014,16.13,73562.5,13.27,4.23,2.21,0,*4A
1495627450.49,10015,16.13,73562.0,13.27,5.27,3.23,0,*4D
1495627451.72,10016,16.13,73560.5,13.35,4.93,3.25,0,*45
1495627452.92,10017,16.13,73562.3,13.37,4.81,2.69,0,*4C
1495627454.14,10018,16.13,73568.5,13.43,3.81,0.95,0,*76
1495627455.38,10019,16.13,73564.0,13.45,3.15,1.13,0,*43
1495627456.6,10020,16.13,73566.8,13.51,2.95,0.71,0,*70
1495627457.83,10021,16.13,73570.3,13.53,2.77,-0.97,0,*5A
1495627459.07,10022,16.13,73568.5,13.59,2.13,-2.67,0,*6C
1495627460.26,10023,16.13,73572.0,13.63,-4.13,-8.67,0,*45
1495627461.48,10024,16.13,73566.3,13.63,-8.81,-13.11,0,*7E
1495627462.71,10025,16.19,73572.0,13.59,-7.61,-11.11,0,*75
1495627463.94,10026,16.13,73568.8,13.57,-10.05,-13.19,0,*46
1495627465.22,10027,16.13,73568.0,13.55,-11.07,-13.83,0,*45
1495627466.44,10028,16.13,73568.3,13.51,-10.57,-12.25,0,*47
1495627467.7,10029,16.13,73570.3,13.47,-10.35,-11.07,0,*46
1495627468.96,10030,16.13,73566.0,13.47,-10.41,-10.05,0,*4E
1495627470.21,10031,16.13,73562.0,13.43,-10.35,-9.53,0,*73
1495627471.42,10032,16.13,73564.5,13.37,-9.83,-8.41,0,*44
1495627472.64,10033,16.13,73570.3,13.33,-8.51,-7.11,0,*45
1495627473.85,10034,16.19,73568.0,13.29,-8.93,-7.15,0,*43
1495627475.12,10035,16.19,73570.3,13.27,-7.35,-5.65,0,*4A
1495627476.34,10036,16.13,73568.5,13.25,-6.85,-5.07,0,*45
1495627477.59,10037,16.13,73568.0,13.21,-8.17,-5.89,0,*43
1495627478.84,10038,16.13,73564.0,13.21,-7.73,-4.33,0,*41
1495627480.06,10039,16.19,73568.3,13.19,-5.89,-2.15,0,*4E
1495627481.29,10040,16.13,73570.5,13.21,-2.15,1.67,0,*62
1495627482.51,10041,16.13,73566.5,13.21,-1.29,2.95,0,*61
1495627483.71,10042,16.19,73570.5,13.27,-0.07,4.57,0,*61
1495627484.92,10043,16.19,73572.3,13.31,-0.61,4.07,0,*52
1495627486.17,10044,16.13,73570.0,13.35,-1.91,2.55,0,*6E
1495627487.39,10045,16.19,73570.3,13.41,-1.25,3.11,0,*62
1495627488.6,10046,16.13,73568.3,13.37,-1.43,2.35,0,*67
1495627489.81,10047,16.13,73568.0,13.41,-1.25,2.17,0,*67
1495627491.02,10048,16.13,73566.8,13.37,-1.33,1.59,0,*67
1495627492.23,10049,16.13,73566.5,13.37,-0.81,1.85,0,*5F
1495627493.45,10050,16.19,73570.5,13.37,0.13,2.47,0,*7C
1495627494.66,10051,16.13,73564.5,13.37,1.05,3.15,0,*4D
1495627495.89,10052,16.19,73568.5,13.37,0.29,2.43,0,*73
1495627497.08,10053,16.19,73568.0,13.37,0.05,1.71,0,*4E
1495627498.3,10054,16.13,73568.3,13.33,0.95,2.43,0,*76
1495627499.55,10055,16.19,73570.3,13.33,1.37,2.51,0,*4D
1495627500.77,10056,16.13,73568.3,13.33,0.51,1.37,0,*7C
1495627501.98,10057,16.19,73574.3,13.29,0.91,1.79,0,*70
1495627503.19,10058,16.19,73570.8,13.25,1.01,1.43,0,*42
1495627504.43,10059,16.19,73572.5,13.25,1.13,1.55,0,*47
1495627505.67,10060,16.19,73570.0,13.21,0.71,0.83,0,*46
1495627506.92,10061,16.13,73568.8,13.17,-1.83,-2.27,0,*42
1495627508.17,10062,16.19,73568.0,13.09,-4.01,-4.17,0,*44
1495627509.39,10063,16.19,73570.8,12.99,-4.45,-4.89,0,*4A
1495627510.57,10064,16.19,73572.0,12.89,-2.91,-2.91,0,*4C
1495627511.8,10065,16.19,73570.3,12.83,-4.33,-4.41,0,*42
1495627513.05,10066,16.19,73570.3,12.73,-5.15,-5.27,0,*4A
1495627514.28,10067,16.19,73574.5,12.67,-4.29,-4.53,0,*42
1495627515.52,10068,16.19,73568.3,12.59,-4.69,-5.03,0,*40
1495627516.75,10069,16.19,73570.0,12.51,-4.21,-4.01,0,*46
1495627517.97,10070,16.19,73566.0,12.41,-5.39,-5.51,0,*43
1495627519.22,10071,16.19,73568.5,12.37,-3.95,-4.01,0,*47
1495627520.46,10072,16.13,73566.3,12.29,-1.21,-0.97,0,*7D
1495627521.67,10073,16.19,73570.0,12.29,0.01,0.13,0,*73
1495627522.86,10074,16.19,73570.0,12.27,-0.69,-0.69,0,*49
1495627524.08,10075,16.13,73562.5,12.21,-2.79,-2.95,0,*4C
1495627525.31,10076,16.19,73566.5,12.15,-3.91,-4.01,0,*44
1495627526.56,10077,16.19,73564.5,12.11,-3.51,-3.59,0,*47
1495627527.8,10078,16.19,73564.5,12.01,-6.63,-6.69,0,*4B
1495627529.02,10079,16.19,73564.8,11.95,-5.47,-5.47,0,*4E
1495627530.24,10080,16.19,73568.8,11.89,-4.01,-4.13,0,*46
1495627531.44,10081,16.19,73570.0,11.85,-4.41,-4.53,0,*4B
1495627532.66,10082,16.19,73570.8,11.79,-3.39,-3.31,0,*40
1495627533.86,10083,16.19,73564.8,11.73,-3.39,-3.35,0,*4F
1495627535.14,10084,16.19,73566.0,11.67,-5.23,-5.03,0,*43
1495627536.34,10085,16.19,73562.8,11.59,-4.05,-4.13,0,*4A
1495627537.55,10086,16.19,73562.5,11.57,-2.83,-2.19,0,*43
1495627538.77,10087,16.19,73562.8,11.51,-0.85,-0.19,0,*42
1495627539.97,10088,16.19,73562.3,11.51,-0.49,0.29,0,*63
1495627541.19,10089,16.19,73562.3,11.53,-0.73,-0.11,0,*4F
1495627542.39,10090,16.19,73562.8,11.51,0.05,0.47,0,*77
1495627543.59,10091,16.19,73564.5,11.51,0.01,0.37,0,*75
1495627544.8,10092,16.19,73568.3,11.47,0.17,0.41,0,*47
1495627546.02,10093,16.19,73564.8,11.49,0.25,0.43,0,*4B
1495627547.22,10094,16.19,73564.3,11.49,-0.03,0.01,0,*63
1495627548.4,10095,16.19,73564.0,11.47,-0.29,-0.29,0,*43
1495627549.62,10096,16.19,73564.3,11.45,-2.19,-2.15,0,*4E
1495627550.84,10097,16.19,73568.3,11.41,-0.27,0.01,0,*5E
1495627552.06,10098,16.19,73568.5,11.41,-0.49,-0.49,0,*48
1495627553.3,10099,16.19,73570.5,11.37,-0.27,-0.19,0,*45
1495627554.55,10100,16.19,73566.5,11.37,0.17,0.21,0,*4C
1495627555.8,10101,16.19,73566.3,11.35,-1.01,-1.01,0,*4A
1495627557.05,10102,16.19,73568.0,11.29,-1.83,-1.87,0,*40
1495627558.3,10103,16.19,73568.8,11.25,-1.01,-1.01,0,*49
1495627559.49,10104,16.19,73566.3,11.25,-0.77,-0.69,0,*41
1495627560.68,10105,16.19,73560.5,11.25,-0.41,-0.37,0,*4E
1495627561.91,10106,16.19,73560.5,11.21,-1.21,-1.09,0,*42
1495627563.16,10107,16.19,73558.0,11.19,0.25,0.41,0,*40
1495627564.38,10108,16.19,73562.8,11.17,0.59,0.67,0,*4E
1495627565.6,10109,16.19,73562.3,11.17,0.67,0.71,0,*45
1495627566.82,10110,16.19,73562.3,11.17,0.47,0.41,0,*4C
1495627568.03,10111,16.19,73566.8,11.17,0.47,0.43,0,*4F
1495627569.23,10112,16.19,73562.5,11.13,0.41,0.43,0,*4E
1495627570.42,10113,16.19,73564.5,11.13,0.05,0.17,0,*7E
1495627571.62,10114,16.19,73560.3,11.11,0.05,0.01,0,*4C
1495627572.88,10115,16.19,73566.3,11.11,0.51,0.51,0,*49
1495627574.1,10116,16.19,73564.3,11.07,0.13,0.05,0,*7A
1495627575.29,10117,16.19,73570.0,11.05,-0.07,-0.19,0,*71
1495627576.51,10118,16.19,73566.3,11.05,0.33,0.25,0,*46
1495627577.72,10119,16.19,73570.5,11.05,0.71,0.43,0,*41
1495627578.97,10120,16.19,73566.8,11.03,-3.15,-3.67,0,*49
1495627580.2,10121,16.19,73568.5,10.99,-2.39,-2.67,0,*44
1495627581.4,10122,16.19,73570.8,10.97,-0.73,-0.85,0,*4B
1495627582.65,10123,16.19,73570.3,10.95,-1.05,-1.17,0,*42
1495627583.85,10124,16.19,73568.0,10.95,-0.65,-0.61,0,*42
1495627585.07,10125,16.19,73570.0,10.91,-1.29,-1.21,0,*4B
1495627586.34,10126,16.19,73570.8,10.91,-2.03,-1.91,0,*48
1495627587.55,10127,16.19,73570.5,10.91,-1.75,-1.55,0,*43
1495627588.75,10128,16.19,73568.5,10.85,-0.97,-0.65,0,*46
1495627589.94,10129,16.19,73570.3,10.85,-0.53,-0.41,0,*49
1495627591.19,10130,16.19,73568.5,10.83,0.87,1.09,0,*73
1495627592.42,10131,16.19,73568.0,10.85,1.09,1.17,0,*4C
1495627593.62,10132,16.19,73564.3,10.89,-0.23,-0.19,0,*45
1495627594.83,10133,16.19,73566.3,10.85,0.13,0.47,0,*40
1495627596.05,10134,16.19,73566.8,10.85,0.37,0.59,0,*4E
1495627597.26,10135,16.19,73566.3,10.85,0.47,0.59,0,*48
1495627598.45,10136,16.19,73566.8,10.85,-0.37,-0.11,0,*40
1495627599.62,10137,16.19,73566.3,10.81,-0.15,0.01,0,*59
1495627600.83,10138,16.19,73566.5,10.81,0.63,0.83,0,*40
1495627602.06,10139,16.19,73568.3,10.81,1.33,1.43,0,*48
1495627603.3,10140,16.19,73568.3,10.83,1.47,1.71,0,*46
1495627604.53,10141,16.19,73566.5,10.81,1.29,1.51,0,*4F
1495627605.76,10142,16.19,73566.0,10.83,0.51,0.67,0,*44
1495627606.98,10143,16.19,73566.8,10.83,0.87,0.97,0,*41
1495627608.16,10144,16.19,73566.0,10.81,0.43,0.59,0,*4E
1495627609.39,10145,16.19,73564.3,10.81,1.29,1.29,0,*44
1495627610.62,10146,16.19,73564.8,10.81,1.17,1.17,0,*47
1495627611.85,10147,16.19,73562.8,10.81,1.17,1.13,0,*42
1495627613.07,10148,16.19,73564.8,10.79,1.01,0.95,0,*72
1495627614.24,10149,16.19,73566.3,10.77,0.97,0.97,0,*41
1495627615.45,10150,16.19,73564.8,10.77,0.75,0.87,0,*44
1495627616.67,10151,16.19,73566.0,10.77,-0.93,-0.93,0,*48
1495627617.92,10152,16.19,73564.8,10.75,-0.85,-0.85,0,*49
1495627619.16,10153,16.19,73566.3,10.71,-1.39,-1.29,0,*4D
1495627620.35,10154,16.19,73566.3,10.69,0.05,0.17,0,*71
1495627621.53,10155,16.19,73560.8,10.69,-0.53,-0.53,0,*43
1495627622.72,10156,16.19,73562.0,10.63,-0.65,-0.77,0,*49
1495627623.93,10157,16.19,73560.0,10.61,-0.15,-0.15,0,*49
1495627625.13,10158,16.19,73558.0,10.61,1.05,1.05,0,*46
1495627626.37,10159,16.19,73560.8,10.61,0.51,0.63,0,*46
1495627627.57,10160,16.19,73566.0,10.59,1.33,1.41,0,*43
1495627628.82,10161,16.19,73560.5,10.61,1.55,1.71,0,*4A
1495627630.05,10162,16.19,73566.8,10.59,2.05,1.93,0,*48
1495627631.25,10163,16.19,73562.5,10.59,1.05,0.95,0,*7D
1495627632.45,10164,16.19,73566.8,10.59,1.41,1.17,0,*41
1495627633.69,10165,16.19,73564.5,10.61,0.83,0.63,0,*46
1495627634.93,10166,16.19,73564.5,10.59,1.33,1.09,0,*49
1495627636.15,10167,16.19,73564.3,10.59,0.59,0.71,0,*4B
1495627637.39,10168,16.19,73566.5,10.59,2.17,2.13,0,*4A
1495627638.6,10169,16.19,73562.5,10.59,2.35,2.25,0,*4E
1495627639.84,10170,16.19,73562.8,10.61,1.43,1.25,0,*4C
1495627641.05,10171,16.19,73564.5,10.59,2.77,2.61,0,*41
1495627642.28,10172,16.19,73562.5,10.63,2.55,2.09,0,*45
1495627643.51,10173,16.19,73562.5,10.63,2.39,1.33,0,*44
1495627644.71,10174,16.19,73562.5,10.67,2.91,1.97,0,*4B
1495627645.98,10175,16.19,73556.8,10.71,3.07,2.17,0,*48
1495627647.2,10176,16.19,73562.0,10.75,4.15,3.53,0,*4A
1495627648.4,10177,16.19,73564.3,10.77,4.59,4.19,0,*48
1495627649.63,10178,16.19,73562.3,10.81,4.97,4.63,0,*41
1495627650.83,10179,16.19,73560.5,10.85,5.15,4.79,0,*44
1495627652.03,10180,16.19,73560.5,10.93,4.53,4.01,0,*49
1495627653.24,10181,16.19,73564.0,10.97,4.71,4.41,0,*48
1495627654.46,10182,16.19,73562.5,11.03,5.37,5.07,0,*47
1495627655.72,10183,16.19,73564.5,11.07,5.51,5.51,0,*41
1495627656.94,10184,16.19,73566.3,11.15,6.97,7.09,0,*43
1495627658.15,10185,16.19,73562.3,11.21,6.07,6.17,0,*42
1495627659.39,10186,16.19,73564.8,11.27,6.33,6.53,0,*40
1495627660.63,10187,16.19,73568.0,11.31,6.11,6.47,0,*43
1495627661.87,10188,16.19,73568.8,11.41,5.95,6.35,0,*41
1495627663.11,10189,16.19,73564.3,11.45,5.99,6.51,0,*4A
1495627664.32,10190,16.19,73564.0,11.51,4.49,4.79,0,*43
1495627665.5,10191,16.19,73566.5,11.51,3.85,4.23,0,*4A
1495627666.74,10192,16.19,73564.5,11.51,3.79,4.01,0,*4A
1495627667.96,10193,16.19,73566.8,11.57,2.73,2.95,0,*4D
1495627669.19,10194,16.19,73568.5,11.53,3.63,4.01,0,*45
1495627670.41,10195,16.19,73566.5,11.57,4.01,4.27,0,*47
1495627671.65,10196,16.19,73564.8,11.59,3.37,3.67,0,*4B
1495627672.82,10197,16.19,73568.3,11.59,3.55,3.81,0,*46
1495627674.03,10198,16.19,73566.8,11.59,3.71,3.85,0,*4B
1495627675.29,10199,16.19,73566.8,11.61,3.11,3.23,0,*4B
1495627676.52,10200,16.19,73564.8,11.61,2.99,3.23,0,*49
1495627677.75,10201,16.19,73562.3,11.61,3.33,3.59,0,*44
1495627678.99,10202,16.19,73564.3,11.61,3.25,3.45,0,*4D
1495627680.23,10203,16.19,73566.3,11.61,3.67,3.93,0,*41
1495627681.49,10204,16.19,73572.0,11.61,3.67,3.97,0,*42
1495627682.73,10205,16.19,73566.8,11.63,3.71,3.37,0,*4C
1495627683.98,10206,16.19,73562.8,11.61,1.47,1.43,0,*4B
1495627685.19,10207,16.19,73558.0,11.59,1.05,1.09,0,*49
1495627686.39,10208,16.19,73560.8,11.57,1.01,1.05,0,*40
1495627687.65,10209,16.19,73560.8,11.57,-0.89,-0.89,0,*45
1495627688.84,10210,16.19,73562.0,11.51,-0.49,-0.45,0,*47
1495627690.03,10211,16.19,73558.8,11.47,0.43,0.83,0,*41
1495627691.27,10212,16.19,73560.5,11.47,2.17,2.39,0,*42
1495627692.54,10213,16.19,73562.3,11.45,1.21,1.51,0,*4A
1495627693.78,10214,16.19,73558.0,11.45,2.47,2.61,0,*4E
1495627695.0,10215,16.19,73562.8,11.43,1.75,1.85,0,*42
1495627696.23,10216,16.19,73562.0,11.43,1.71,1.93,0,*42
1495627697.43,10217,16.19,73560.5,11.43,2.13,2.31,0,*4F
1495627698.67,10218,16.19,73562.5,11.43,1.97,2.09,0,*44
1495627699.92,10219,16.19,73562.3,11.41,0.83,0.75,0,*4A
1495627701.14,10220,16.19,73564.8,11.39,1.47,1.79,0,*4B
1495627702.38,10221,16.19,73564.0,11.39,1.93,2.09,0,*47
1495627703.65,10222,16.19,73564.5,11.37,2.39,2.25,0,*47
1495627704.91,10223,16.19,73566.3,11.37,2.05,2.25,0,*49
1495627706.15,10224,16.19,73568.8,11.37,1.67,1.79,0,*43
1495627707.36,10225,16.19,73566.8,11.35,1.01,1.17,0,*48
1495627708.58,10226,16.19,73564.3,11.35,1.63,1.79,0,*47
1495627709.81,10227,16.19,73566.5,11.35,0.95,1.09,0,*79
1495627711.05,10228,16.19,73568.0,11.31,1.05,1.17,0,*45
1495627712.28,10229,16.19,73566.5,11.29,0.29,0.37,0,*41
1495627713.52,10230,16.19,73568.3,11.25,-1.01,-1.13,0,*49
1495627714.76,10231,16.19,73568.8,11.21,-0.93,-0.97,0,*4B
1495627715.98,10232,16.19,73568.8,11.19,-0.49,-0.49,0,*47
1495627717.16,10233,16.19,73568.8,11.17,-0.69,-0.65,0,*44
1495627718.33,10234,16.19,73570.5,11.13,0.01,0.05,0,*4F
1495627719.55,10235,16.19,73566.8,11.07,-0.37,-0.45,0,*4A
1495627720.77,10236,16.19,73566.8,11.03,-0.37,-0.37,0,*48
1495627721.95,10237,16.19,73562.0,11.01,-0.03,0.09,0,*6C